Clarksburg, WV

1:03 AM EST on December 10, 2019 (GMT -0500)
Benedum

Weather History for KCKB - November, 2019

Change the Weather History Date:

Friday, November 22, 2019

  Actual Average Record
Temperature  
Mean Temperature 46 °F -  
Max Temperature 57 °F 48 °F 75 °F (1931)
Min Temperature 32 °F 29 °F 12 °F (1951)
Degree Days  
Heating Degree Days 20    
Moisture  
Dew Point 38 °F    
Average Humidity 72    
Maximum Humidity 87    
Minimum Humidity 49    
Precipitation  
Precipitation 0.32 in - - ()
Sea Level Pressure  
Sea Level Pressure 29.99 in    
Wind  
Wind Speed 10 mph ()    
Max Wind Speed 17 mph    
Max Gust Speed 31 mph    
Visibility 9.3 miles    
Events Rain    
Averages and records for this station are not official NWS values.
T = Trace of Precipitation, MM = Missing Value Source: Averaged Metar Reports

Daily Weather History Graph

Daily Weather History Graph

Search for Another Location

Airport or City:

Astronomy

Nov. 22, 2019 Rise Set
Actual Time 7:11 AM EST 5:01 PM EST
Civil Twilight 6:42 AM EST 5:30 PM EST
Nautical Twilight 6:10 AM EST 6:03 PM EST
Astronomical Twilight 5:38 AM EST 6:35 PM EST
Moon 2:18 AM EST (11/22) 2:59 PM EST (11/22)
Length of Visible Light 10h 47m
Length of Day
9h 49m
Waning Crescent, 20% of the Moon is Illuminated
Nov 22
Waning Crescent
Nov 26
New
Dec 4
First Quarter
Dec 12
Full
Dec 18
Last Quarter

Hourly Weather History & Observations

Time (EST) Temp. Windchill Dew Point Humidity Pressure Visibility Wind Dir Wind Speed Gust Speed Precip Events Conditions
12:53 AM 57.9 °F - 41.0 °F 53% 29.94 in 10.0 mi SW 16.1 mph 23.0 mph N/A   Overcast
1:53 AM 57.9 °F - 39.9 °F 51% 29.92 in 10.0 mi SW 10.4 mph - N/A   Overcast
2:53 AM 57.9 °F - 39.0 °F 49% 29.91 in 10.0 mi SW 9.2 mph - N/A   Overcast
3:53 AM 57.9 °F - 39.9 °F 51% 29.88 in 10.0 mi SW 10.4 mph 19.6 mph N/A   Overcast
4:53 AM 57.9 °F - 39.9 °F 51% 29.87 in 10.0 mi WSW 12.7 mph 20.7 mph N/A   Overcast
5:53 AM 57.0 °F - 39.9 °F 53% 29.86 in 10.0 mi WSW 12.7 mph 24.2 mph 0.00 in Rain Light Rain
6:01 AM 57.0 °F - 39.9 °F 53% 29.88 in 10.0 mi WSW 17.3 mph 24.2 mph 0.00 in   Overcast
6:48 AM 53.6 °F - 44.6 °F 72% 29.92 in 7.0 mi WSW 13.8 mph 21.9 mph 0.03 in Rain Light Rain
6:53 AM 53.1 °F - 44.1 °F 71% 29.91 in 9.0 mi WSW 15.0 mph - 0.03 in Rain Light Rain
7:53 AM 51.1 °F - 46.0 °F 83% 29.91 in 8.0 mi SW 11.5 mph - 0.08 in Rain Light Rain
8:21 AM 51.1 °F - 46.0 °F 83% 29.93 in 6.0 mi SW 12.7 mph - 0.03 in Rain Rain
8:53 AM 51.1 °F - 46.9 °F 86% 29.92 in 4.0 mi WSW 11.5 mph 19.6 mph 0.08 in Rain Rain
9:53 AM 51.1 °F - 45.0 °F 80% 29.93 in 6.0 mi WNW 13.8 mph - 0.10 in Rain Light Rain
9:56 AM 51.1 °F - 45.0 °F 80% 29.95 in 7.0 mi WNW 13.8 mph - 0.00 in Rain Light Rain
10:01 AM 50.0 °F - 45.0 °F 83% 29.96 in 9.0 mi NW 15.0 mph - 0.00 in Rain Light Rain
10:12 AM 48.9 °F - 42.1 °F 77% 29.97 in 7.0 mi NW 17.3 mph 31.1 mph 0.01 in Rain Light Rain
10:49 AM 46.4 °F 41.9 °F 42.8 °F 87% 29.99 in 10.0 mi WNW 9.2 mph - 0.02 in Rain Light Rain
10:50 AM 46.9 °F - 42.1 °F 83% 29.97 in 10.0 mi WNW 10.4 mph - 0.02 in Rain Light Rain
11:26 AM 46.9 °F - 42.1 °F 83% 30.00 in 10.0 mi NNW 11.5 mph - 0.01 in Rain Light Rain
11:38 AM 46.0 °F 40.6 °F 39.9 °F 79% 29.99 in 10.0 mi NNW 11.5 mph - 0.01 in Rain Light Rain
11:53 AM 45.0 °F 40.1 °F 39.9 °F 82% 29.99 in 10.0 mi NNW 9.2 mph - 0.01 in   Overcast
12:53 PM 45.0 °F 40.6 °F 39.0 °F 80% 29.99 in 10.0 mi NNW 8.1 mph - N/A   Overcast
1:50 PM 46.4 °F 43.5 °F 39.2 °F 76% 29.98 in 10.0 mi NW 5.8 mph - N/A   Mostly Cloudy
1:53 PM 46.0 °F 42.5 °F 39.0 °F 76% 29.97 in 10.0 mi NW 6.9 mph - N/A   Mostly Cloudy
2:18 PM 46.9 °F - 37.0 °F 68% 30.00 in 10.0 mi WNW 9.2 mph - N/A   Mostly Cloudy
2:53 PM 46.9 °F - 35.1 °F 63% 29.99 in 10.0 mi West 5.8 mph - N/A   Partly Cloudy
3:53 PM 46.9 °F - 35.1 °F 63% 30.02 in 10.0 mi West 9.2 mph - N/A   Mostly Cloudy
4:53 PM 44.1 °F 40.8 °F 33.1 °F 65% 30.04 in 10.0 mi WNW 5.8 mph - N/A   Partly Cloudy
5:53 PM 42.1 °F 38.4 °F 30.9 °F 65% 30.07 in 10.0 mi NNW 5.8 mph - N/A   Mostly Cloudy
6:53 PM 39.9 °F - 30.0 °F 68% 30.09 in 10.0 mi Calm Calm - N/A   Partly Cloudy
7:53 PM 37.0 °F - 30.0 °F 76% 30.09 in 10.0 mi Calm Calm - N/A   Scattered Clouds
8:53 PM 36.0 °F 31.1 °F 28.9 °F 76% 30.11 in 10.0 mi NNE 5.8 mph - N/A   Clear
9:24 PM 35.1 °F 32.2 °F 28.9 °F 78% 30.11 in 10.0 mi NNE 3.5 mph - N/A   Mostly Cloudy
9:53 PM 36.0 °F - 28.9 °F 76% 30.11 in 10.0 mi Calm Calm - N/A   Overcast
10:44 PM 34.0 °F - 28.0 °F 79% 30.09 in 10.0 mi Calm Calm - N/A   Partly Cloudy
10:53 PM 34.0 °F - 28.0 °F 79% 30.10 in 10.0 mi Calm Calm - N/A   Partly Cloudy
11:53 PM 32.0 °F - 28.0 °F 85% 30.11 in 10.0 mi Calm Calm - N/A   Clear